{"data":{"norad_id":58123,"intl_designator":"2023-162F","name":"STARLINK-30781","alt_names":[],"object_type":"PAYLOAD","status":"ACTIVE","operator":null,"country":"US","launch_date":"2023-10-22","launch_site_code":"AFETR","launch_vehicle":null,"mission":null,"orbit_class":"UNKNOWN","rcs_meters":null,"size_class":null,"mass_kg":null,"dimensions":null,"purposes":["comms"],"wikipedia_slug":null,"has_3d_model":false,"image_url":null,"decayed_at":null,"tle_current":{"epoch":"2026-09-20T07:30:07.306848Z","epoch_age_seconds":156702,"freshness":"FRESH","line1":"1 58123U 23162F   26263.31258457  .00000739  00000+0  36390-4 0  9990","line2":"2 58123  43.0030 113.2402 0001654 274.0800  85.9863 15.27576606162071","mean_motion":15.27576606,"eccentricity":0.0001654,"inclination_deg":43.003,"raan_deg":113.2402,"arg_perigee_deg":274.08,"mean_anomaly_deg":85.9863,"bstar":3.639e-5,"rev_number":16207,"period_min":94.266958157384,"perigee_km":481.92441705423,"apogee_km":484.19410077668,"semimajor_km":6861.1962589155,"source":"CELESTRAK","updated_at":"2026-09-21T09:00:33.791508Z"}}}